Marshall, MI

1:47 AM EDT on May 30, 2017 (GMT -0400)
Brooks

Weather History for KRMY - December, 2013

Change the Weather History Date:

Monday, December 23, 2013

  Actual Average (KBTL) Record (KBTL)
Temperature  
Mean Temperature 22 °F -  
Max Temperature 30 °F 29 °F 61 °F (2015)
Min Temperature 14 °F 17 °F 1 °F (2000)
Degree Days  
Heating Degree Days 43    
Moisture  
Dew Point 20 °F    
Average Humidity 82    
Maximum Humidity 93    
Minimum Humidity 69    
Precipitation  
Precipitation 0.00 in - - ()
Sea Level Pressure  
Sea Level Pressure 30.18 in    
Wind  
Wind Speed 10 mph (West)    
Max Wind Speed 16 mph    
Max Gust Speed 23 mph    
Visibility 9 miles    
Events Snow    
Averages and records for this station are not official NWS values.
T = Trace of Precipitation, MM = Missing Value Source: NWS Daily Summary

Daily Weather History Graph

Daily Weather History Graph

Search for Another Location

Airport or City:

Trip Planner

Search our weather history database for the weather conditions in past years. The results will help you decide how hot, cold, wet, or windy it might be!

Date:

Astronomy

Dec. 23, 2013 Rise Set
Actual Time 8:06 AM EST 5:11 PM EST
Civil Twilight 7:34 AM EST 5:43 PM EST
Nautical Twilight 6:59 AM EST 6:19 PM EST
Astronomical Twilight 6:24 AM EST 6:53 PM EST
Moon 11:27 PM EST (12/23) 11:25 AM EST (12/23)
Length of Visible Light 10h 09m
Length of Day
9h 05m
Waning Gibbous, 68% of the Moon is Illuminated
Dec 23
Waning Gibbous
Dec 25
Last Quarter
Jan 1
New
Jan 7
First Quarter
Jan 15
Full

Hourly Weather History & Observations

Time (EST) Temp. Windchill Dew Point Humidity Pressure Visibility Wind Dir Wind Speed Gust Speed Precip Events Conditions
12:13 AM 30.9 °F 21.2 °F 28.2 °F 90% 29.97 in 10.0 mi West 12.7 mph - N/A   Overcast
12:34 AM 30.2 °F 21.3 °F 27.9 °F 91% 29.97 in 10.0 mi West 10.4 mph - N/A   Overcast
12:54 AM 30.2 °F 21.3 °F 27.1 °F 88% 29.98 in 10.0 mi West 10.4 mph 19.6 mph N/A   Overcast
1:13 AM 30.2 °F 22.6 °F 27.5 °F 90% 29.98 in 10.0 mi West 8.1 mph - N/A   Overcast
1:34 AM 30.2 °F 21.9 °F 27.3 °F 89% 29.99 in 10.0 mi West 9.2 mph - N/A   Overcast
1:54 AM 30.2 °F 23.4 °F 27.3 °F 89% 29.99 in 10.0 mi WNW 6.9 mph - N/A   Overcast
2:13 AM 28.8 °F 22.6 °F 26.6 °F 92% 30.00 in 3.0 mi WNW 5.8 mph - N/A Snow Light Snow
2:34 AM 28.8 °F 23.7 °F 26.2 °F 90% 30.02 in 10.0 mi WNW 4.6 mph - N/A   Overcast
2:54 AM 28.4 °F 21.2 °F 26.6 °F 93% 30.04 in 7.0 mi NW 6.9 mph - N/A   Overcast
3:13 AM 27.9 °F 22.6 °F 26.1 °F 93% 30.04 in 7.0 mi NW 4.6 mph - N/A Snow Light Snow
3:34 AM 27.5 °F 23.6 °F 25.7 °F 93% 30.04 in 7.0 mi NW 3.5 mph - N/A   Overcast
3:54 AM 27.5 °F - 25.7 °F 93% 30.05 in 10.0 mi Calm Calm - N/A   Overcast
4:13 AM 27.5 °F 21.1 °F 25.0 °F 90% 30.05 in 10.0 mi West 5.8 mph - N/A   Overcast
4:34 AM 27.1 °F 20.7 °F 22.6 °F 83% 30.05 in 10.0 mi WNW 5.8 mph - N/A   Overcast
4:54 AM 27.1 °F 19.7 °F 22.6 °F 83% 30.06 in 10.0 mi WNW 6.9 mph - N/A   Overcast
5:14 AM 27.0 °F 20.5 °F 23.0 °F 85% 30.06 in 10.0 mi West 5.8 mph - N/A   Overcast
5:34 AM 27.0 °F 21.6 °F 23.2 °F 86% 30.07 in 7.0 mi NW 4.6 mph - N/A Snow Light Snow
5:54 AM 26.4 °F 22.4 °F 23.9 °F 90% 30.07 in 4.0 mi WNW 3.5 mph - N/A Snow Light Snow
6:14 AM 26.4 °F 20.9 °F 23.0 °F 87% 30.08 in 7.0 mi WNW 4.6 mph - N/A Snow Light Snow
6:34 AM 26.2 °F 20.7 °F 23.0 °F 88% 30.09 in 7.0 mi West 4.6 mph - N/A Snow Light Snow
6:54 AM 26.2 °F 20.7 °F 23.0 °F 88% 30.10 in 7.0 mi West 4.6 mph - N/A Snow Light Snow
7:14 AM 26.1 °F - 23.9 °F 92% 30.11 in 5.0 mi North - - N/A Snow Light Snow
7:34 AM 26.2 °F 18.6 °F 23.5 °F 90% 30.13 in 7.0 mi West 6.9 mph - N/A Snow Light Snow
7:53 AM 26.2 °F 18.6 °F 23.7 °F 90% 30.14 in 10.0 mi West 6.9 mph - N/A Snow Light Snow
8:14 AM 26.8 °F 17.1 °F 24.4 °F 91% 30.14 in 4.0 mi West 10.4 mph - N/A Snow Light Snow
8:34 AM 27.1 °F 16.4 °F 24.4 °F 90% 30.15 in 3.0 mi West 12.7 mph 17.3 mph N/A Snow Light Snow
8:54 AM 27.1 °F 15.9 °F 23.7 °F 87% 30.16 in 7.0 mi West 13.8 mph 19.6 mph N/A Snow Light Snow
9:14 AM 27.0 °F 15.2 °F 23.0 °F 85% 30.17 in 10.0 mi West 15.0 mph 20.7 mph N/A   Overcast
9:34 AM 26.6 °F 15.7 °F 22.6 °F 85% 30.18 in 10.0 mi West 12.7 mph - N/A   Overcast
9:54 AM 26.6 °F 14.7 °F 21.6 °F 81% 30.20 in 10.0 mi WSW 15.0 mph 18.4 mph N/A   Overcast
10:14 AM 26.6 °F 16.2 °F 20.8 °F 79% 30.20 in 10.0 mi WSW 11.5 mph 18.4 mph N/A   Overcast
10:34 AM 26.6 °F 14.3 °F 20.5 °F 78% 30.21 in 10.0 mi West 16.1 mph 23.0 mph N/A   Overcast
10:54 AM 27.0 °F 15.2 °F 20.8 °F 78% 30.23 in 10.0 mi WSW 15.0 mph - N/A   Overcast
11:14 AM 27.0 °F 16.1 °F 20.5 °F 77% 30.23 in 10.0 mi WSW 12.7 mph 19.6 mph N/A   Overcast
11:34 AM 26.6 °F 15.2 °F 20.5 °F 78% 30.22 in 10.0 mi WSW 13.8 mph 23.0 mph N/A   Overcast
11:54 AM 27.0 °F 14.7 °F 20.5 °F 77% 30.22 in 10.0 mi WSW 16.1 mph - N/A   Overcast
12:14 PM 27.1 °F 16.9 °F 20.3 °F 75% 30.22 in 10.0 mi West 11.5 mph - N/A   Overcast
12:34 PM 27.1 °F 15.4 °F 19.6 °F 73% 30.22 in 10.0 mi WSW 15.0 mph 19.6 mph N/A   Overcast
12:54 PM 27.1 °F 15.4 °F 19.6 °F 73% 30.22 in 10.0 mi WSW 15.0 mph - N/A   Overcast
1:14 PM 26.8 °F 16.5 °F 20.1 °F 76% 30.22 in 10.0 mi WSW 11.5 mph - N/A Snow Light Snow
1:33 PM 27.0 °F 17.3 °F 21.4 °F 79% 30.22 in 10.0 mi WSW 10.4 mph - N/A Snow Light Snow
1:54 PM 26.6 °F 16.8 °F 21.2 °F 80% 30.22 in 10.0 mi WSW 10.4 mph - N/A Snow Light Snow
2:14 PM 26.1 °F 15.0 °F 21.2 °F 82% 30.22 in 10.0 mi SW 12.7 mph 19.6 mph N/A Snow Light Snow
2:33 PM 25.7 °F 14.6 °F 21.0 °F 82% 30.22 in 10.0 mi WSW 12.7 mph - N/A Snow Light Snow
2:54 PM 25.7 °F 14.0 °F 19.8 °F 78% 30.22 in 10.0 mi WSW 13.8 mph 19.6 mph N/A   Overcast
3:14 PM 25.7 °F 15.7 °F 19.2 °F 76% 30.23 in 10.0 mi WSW 10.4 mph - N/A   Overcast
3:33 PM 25.3 °F 16.0 °F 18.7 °F 76% 30.23 in 10.0 mi WSW 9.2 mph - N/A   Overcast
3:54 PM 24.8 °F 12.9 °F 19.0 °F 79% 30.24 in 7.0 mi WSW 13.8 mph - N/A Snow Light Snow
4:14 PM 24.8 °F 12.9 °F 16.5 °F 71% 30.24 in 10.0 mi West 13.8 mph 19.6 mph N/A Snow Light Snow
4:33 PM 24.3 °F 14.6 °F 16.3 °F 72% 30.25 in 10.0 mi West 9.2 mph 18.4 mph N/A Snow Light Snow
4:54 PM 23.7 °F 14.7 °F 16.3 °F 73% 30.26 in 10.0 mi West 8.1 mph - N/A   Overcast
5:14 PM 23.0 °F 11.7 °F 17.6 °F 80% 30.26 in 5.0 mi West 11.5 mph 16.1 mph N/A Snow Light Snow
5:34 PM 22.5 °F 13.2 °F 18.3 °F 84% 30.26 in 5.0 mi WSW 8.1 mph - N/A Snow Light Snow
5:54 PM 21.9 °F 14.5 °F 18.7 °F 87% 30.26 in 4.0 mi West 5.8 mph - N/A Snow Light Snow
6:14 PM 21.9 °F 11.0 °F 18.3 °F 86% 30.26 in 5.0 mi West 10.4 mph - N/A Snow Light Snow
6:34 PM 21.6 °F 8.2 °F 17.4 °F 84% 30.27 in 7.0 mi WSW 15.0 mph 19.6 mph N/A Snow Light Snow
6:54 PM 20.1 °F 8.1 °F 14.2 °F 78% 30.28 in 10.0 mi West 11.5 mph - N/A Snow Light Snow
7:14 PM 18.5 °F 4.9 °F 11.8 °F 75% 30.29 in 10.0 mi West 13.8 mph - N/A   Scattered Clouds
7:34 PM 18.3 °F 5.9 °F 11.8 °F 76% 30.29 in 10.0 mi West 11.5 mph 17.3 mph N/A   Mostly Cloudy
7:54 PM 18.1 °F 6.3 °F 11.3 °F 75% 30.30 in 10.0 mi West 10.4 mph 18.4 mph N/A   Overcast
8:14 PM 17.8 °F 4.6 °F 10.8 °F 74% 30.30 in 10.0 mi WSW 12.7 mph - N/A   Overcast
8:34 PM 17.4 °F 6.2 °F 10.4 °F 74% 30.30 in 10.0 mi West 9.2 mph - N/A   Overcast
8:54 PM 17.2 °F 5.2 °F 9.7 °F 72% 30.30 in 10.0 mi West 10.4 mph - N/A   Overcast
9:14 PM 16.7 °F 5.3 °F 8.4 °F 70% 30.30 in 10.0 mi WSW 9.2 mph - N/A   Overcast
9:34 PM 16.7 °F 3.8 °F 8.1 °F 69% 30.29 in 10.0 mi WSW 11.5 mph 18.4 mph N/A   Overcast
9:54 PM 16.7 °F 3.8 °F 9.0 °F 72% 30.29 in 10.0 mi WSW 11.5 mph 17.3 mph N/A   Overcast
10:13 PM 16.3 °F 2.1 °F 9.5 °F 74% 30.29 in 10.0 mi WSW 13.8 mph 18.4 mph N/A Snow Light Snow
10:34 PM 15.8 °F 3.4 °F 10.2 °F 79% 30.29 in 7.0 mi WSW 10.4 mph - N/A Snow Light Snow
10:54 PM 15.4 °F 2.3 °F 10.4 °F 80% 30.29 in 7.0 mi WSW 11.5 mph 16.1 mph N/A Snow Light Snow
11:13 PM 15.3 °F 2.0 °F 10.2 °F 80% 30.29 in 10.0 mi WSW 11.5 mph - N/A Snow Light Snow
11:34 PM 14.7 °F 1.4 °F 9.7 °F 80% 30.30 in 10.0 mi WSW 11.5 mph - N/A Snow Light Snow
11:53 PM 14.4 °F -1.0 °F 8.2 °F 77% 30.30 in 10.0 mi WSW 15.0 mph - N/A   Overcast